This demonstration page uses our WeatherBlox Daily Observations layout. Learn more.

Left ArrowRight Arrow

Hourly Observations for July 11, 2016

Temp ( °F °C ) Dew Point ( °F °C ) Humidity (%) Winds ( mph kmh ) Pressure ( in mb ) Visibility ( mi km ) Precip ( " mm )
12:58 am 00:58 Clear 79 26 73 22.7 82 82 SE 14 22 29.73 1007 10 16 0.00 0.00
1:58 am 01:58 Clear 78 25.5 73 22.5 84 84 SSE 13 20 29.73 1007 10 16 0.00 0.00
2:58 am 02:58 Clear 77 25 72 22.4 86 86 SE 10 17 29.73 1007 10 16 0.00 0.00
3:58 am 03:58 Clear 76 24.2 73 22.5 90 90 SE 10 17 29.72 1006 10 16 0.00 0.00
4:58 am 04:58 Clear 76 24.7 72 22.3 87 87 SE 13 20 29.72 1006 10 16 0.00 0.00
5:58 am 05:58 Clear 76 24.3 73 22.5 90 90 ESE 10 17 29.71 1006 10 16 0.00 0.00
6:58 am 06:58 Sunny 76 24.7 72 22.3 87 87 SE 13 20 29.71 1006 10 16 0.00 0.00
7:58 am 07:58 Sunny 78 25.7 73 22.5 83 83 SSE 14 22 29.70 1006 10 16 0.00 0.00
8:58 am 08:58 Sunny 80 26.7 73 22.7 79 79 SE 15 24 29.68 1005 10 16 0.00 0.00
9:58 am 09:58 Sunny 83 28.2 73 22.6 72 72 SE 20 31 29.67 1005 10 16 0.00 0.00
10:58 am 10:58 Sunny 85 29.7 74 23.1 68 68 SSE 22 35 29.66 1004 10 16 0.00 0.00
11:58 am 11:58 Sunny 87 30.8 74 23.3 64 64 SSE 23 37 29.64 1004 10 16 0.00 0.00
12:58 pm 12:58 Mostly Sunny 88 31 74 23.3 64 64 SSE 23 37 29.63 1003 10 16 0.00 0.00
1:58 pm 13:58 Mostly Sunny 91 32.8 74 23.6 58 58 S 18 30 29.62 1003 10 16 0.00 0.00
2:58 pm 14:58 Partly Cloudy 90 32.4 75 24 61 61 SSE 18 30 29.62 1003 10 16 0.00 0.00
3:58 pm 15:58 Mostly Sunny 93 33.7 77 24.8 60 60 S 21 33 29.62 1003 10 16 0.00 0.00
4:58 pm 16:58 Sunny 92 33.1 77 25.2 63 63 SSE 18 30 29.62 1003 10 16 0.00 0.00
5:58 pm 17:58 Mostly Sunny 92 33.2 78 25.6 64 64 SSE 16 26 29.62 1003 10 16 0.00 0.00
6:58 pm 18:58 Sunny 90 32 77 24.8 66 66 SSE 20 31 29.62 1003 10 16 0.00 0.00
7:58 pm 19:58 Sunny 88 30.9 77 24.8 70 70 SE 21 33 29.60 1002 10 16 0.00 0.00
8:58 pm 20:58 Mostly Cloudy 87 30.3 76 24.3 70 70 SSE 16 26 29.63 1003 10 16 0.00 0.00
9:58 pm 21:58 Mostly Clear 85 29.7 76 24.3 73 73 NNE 17 28 29.69 1005 10 16 0.00 0.00
10:10 pm 22:10 Mostly Cloudy 77 25 64 18 65 65 N 14 22 29.68 1005 10 16 0.00 0.00
10:58 pm 22:58 Cloudy with Thunderstorms 74 23.3 63 17.2 69 69 N 17 28 29.71 1006 10 16 0.00 0.00
11:01 pm 23:01 Cloudy with Thunderstorms 73 23 64 18 74 74 N 13 20 29.68 1005 10 16 0.00 0.00
11:11 pm 23:11 Cloudy with Thunderstorms 70 21 64 18 83 83 NNE 8 13 29.68 1005 10 16 0.00 0.00
11:52 pm 23:52 Mostly Cloudy with Strong Thunderstorms 68 20 64 18 88 88 NW 21 33 29.74 1007 2 3 0.00 0.00
11:58 pm 23:58 Mostly Cloudy with Strong Thunderstorms 68 20 64 18 88 88 WNW 22 35 29.78 1009 1 1 0.09 2.29

Powered by AerisWeather